User: anonymous   Login
Location: S�deilles
(46.7500°N, 6.9329°E)
Time: 20:39:52
(UTC+00:00)
Language:

USA 238 - Orbit

View from above orbital plane
View from above orbital plane
View from above satellite
View from above satellite

Ground track
Ground track

The orbit data is extracted from the following two-line orbital elements,

1 38758U 12048A   21136.05284900 0.00000000  00000-0  00000-0 0    00
2 38758  63.4359 264.6462 0152787 359.6285   0.3714 13.40822248    00
Epoch (UTC): 16 May 2021 01:16:06
Eccentricity: 0.0152787
inclination: 63.4359°
perigee height: 992 km
apogee height: 1220 km
right ascension of ascending node: 264.6462°
argument of perigee: 359.6285°
revolutions per day: 13.40822248
mean anomaly at epoch: 0.3714°
orbit number at epoch: 0

The dashed part of the orbit path shows where the satellite is in the earth's shadow,  

DLR